Tracking 23726 objects as of 23-Sep-2021
HD Live streaming from Space Station
objects crossing your sky now

STARLINK-1866

Track STARLINK-1866 now!
10-day predictions
STARLINK-1866 is classified as:


NORAD ID: 47152
Int'l Code: 2020-088AG
Perigee: 553.0 km
Apogee: 555.6 km
Inclination: 53.1 °
Period: 95.6 minutes
Semi major axis: 6925 km
RCS: Unknown
Launch date: November 25, 2020
Source: United States (US)
Launch site: AIR FORCE EASTERN TEST RANGE (AFETR)
aabbcc
Your satellite tracking list
Your tracking list is empty




NASA's NSSDC Master Catalog

Two Line Element Set (TLE):
1 47152U 20088AG  21265.39308104  .00001724  00000-0  13459-3 0  9990
2 47152  53.0556  55.8244 0001880 100.2491 259.8710 15.06410255 46266
Source of the keplerian elements: AFSPC